TimeMDT,TemperatureF,Dew PointF,Humidity,Sea Level PressureIn,VisibilityMPH,Wind Direction,Wind SpeedMPH,Gust SpeedMPH,PrecipitationIn,Events,Conditions,WindDirDegrees,DateUTC
12:53 AM,25.0,16.0,69,29.90,10.0,West,8.1,-,N/A,,Clear,270,2013-04-11 06:53:00
1:53 AM,27.0,16.0,63,29.83,10.0,West,15.0,-,N/A,,Clear,270,2013-04-11 07:53:00
2:53 AM,26.1,16.0,66,29.82,10.0,West,17.3,-,N/A,,Clear,270,2013-04-11 08:53:00
3:53 AM,25.0,14.0,63,29.83,10.0,WNW,11.5,-,N/A,,Clear,290,2013-04-11 09:53:00
4:53 AM,24.1,14.0,65,29.81,10.0,NW,10.4,-,N/A,,Clear,310,2013-04-11 10:53:00
5:53 AM,21.9,15.1,75,29.84,10.0,WNW,11.5,-,N/A,,Clear,300,2013-04-11 11:53:00
6:53 AM,26.1,18.0,71,29.84,10.0,NW,19.6,25.3,N/A,,Clear,310,2013-04-11 12:53:00
7:53 AM,30.0,19.9,66,29.85,10.0,NW,21.9,27.6,N/A,,Clear,310,2013-04-11 13:53:00
9:53 AM,42.1,16.0,35,29.84,10.0,NW,27.6,38.0,N/A,,Clear,310,2013-04-11 15:53:00
10:53 AM,46.0,16.0,30,29.83,10.0,NW,24.2,33.4,N/A,,Clear,320,2013-04-11 16:53:00
11:53 AM,48.9,17.1,28,29.82,10.0,NW,24.2,32.2,N/A,,Clear,320,2013-04-11 17:53:00
12:53 PM,53.1,18.0,25,29.79,10.0,NW,31.1,38.0,N/A,,Clear,320,2013-04-11 18:53:00
1:53 PM,57.0,19.9,24,29.75,10.0,NW,31.1,39.1,N/A,,Clear,320,2013-04-11 19:53:00
2:53 PM,57.9,19.9,23,29.75,10.0,NW,31.1,40.3,N/A,,Clear,310,2013-04-11 20:53:00
3:53 PM,57.9,23.0,26,29.74,10.0,WNW,33.4,39.1,N/A,,Clear,300,2013-04-11 21:53:00
4:53 PM,57.0,25.0,29,29.75,10.0,WNW,31.1,47.2,N/A,,Clear,300,2013-04-11 22:53:00
5:53 PM,54.0,26.1,34,29.78,10.0,WNW,31.1,42.6,N/A,,Clear,300,2013-04-11 23:53:00
6:53 PM,52.0,25.0,35,29.77,10.0,WNW,26.5,34.5,N/A,,Clear,300,2013-04-12 00:53:00
7:53 PM,48.0,25.0,41,29.78,10.0,WNW,25.3,31.1,N/A,,Clear,290,2013-04-12 01:53:00
8:53 PM,46.0,26.1,46,29.78,10.0,West,17.3,-,N/A,,Clear,280,2013-04-12 02:53:00
9:53 PM,44.1,26.1,49,29.81,10.0,SE,3.5,-,N/A,,Partly Cloudy,140,2013-04-12 03:53:00
10:53 PM,43.0,27.0,53,29.80,10.0,West,9.2,-,N/A,,Clear,280,2013-04-12 04:53:00
11:53 PM,42.1,27.0,55,29.79,10.0,NW,6.9,-,N/A,,Clear,320,2013-04-12 05:53:00